User: anonymous   Login
Location: Most
(50.5133°N, 13.6207°E)
Time: 13:43:45
(UTC+01:00)
Language:

UNHA 3 R/B - Orbit

View from above orbital plane
View from above orbital plane
View from above satellite
View from above satellite

Ground track
Ground track

The orbit data is extracted from the following two-line orbital elements,

1 39027U 12072B   20301.16744195  .00000862  00000-0  46668-4 0  9996
2 39027  97.3629 273.3758 0055617 280.8171  78.6806 15.16058556434935
Epoch (UTC): 27 October 2020 04:01:06
Eccentricity: 0.0055617
inclination: 97.3629°
perigee height: 479 km
apogee height: 556 km
right ascension of ascending node: 273.3758°
argument of perigee: 280.8171°
revolutions per day: 15.16058556
mean anomaly at epoch: 78.6806°
orbit number at epoch: 43493

The dashed part of the orbit path shows where the satellite is in the earth's shadow,  

DLR